sat.trackr.live / text

‹ back to catalog

STARLINK-3564

NORAD 52302 · 2022-041AT

PAYLOAD ACTIVE UNKNOWN

§ Identity

Operator
Country
US
Launch date
2022-04-21
Launch site
AFETR
Launch vehicle
Mass (kg)
RCS (m²)

Purposes: comms

External: N2YO · Heavens-Above · Gunter

§ Orbital elements

Epoch: 2026-05-25T03:42:55.126080Z

Period
95.44 min
Inclination
53.2162°
Eccentricity
0.0001294
Mean motion
15.08843048 rev/d
Perigee alt
538.8 km
Apogee alt
540.6 km
Semi-major
6,917.9 km
B*
5.2048e-5
RAAN
105.8555°
Arg perigee
75.9203°
Mean anomaly
284.1932°
Rev number
22,618

§ Raw data

STARLINK-35641 52302U 22041AT  26145.15480470  .00000541  00000+0  52048-4 0  99902 52302  53.2162 105.8555 0001294  75.9203 284.1932 15.08843048226183

JSON: /api/v1/satellites/52302 · /tle

For live sub-satellite position, see the globe view (requires WebGL).

§ Visibility from observer

Set your observer location to see the next 7 days of passes ≥ 10°. The values pass through the URL so the page stays shareable.

No JS? Fill the form by hand. The geolocation button needs JavaScript.